Volver al catálogo

STARLINK-35011

ActivoComunicacionesVLEO
NORAD 66082·PAYLOAD·🇺🇸 United States

Lanzado Oct 19, 2025 desde Cape Canaveral Space Force Station

Loading…

Próximos Pases (próximas 24 horas)

TLE

ActualizadoSource: CelesTrak SupGP

Época: Sep 15, 2026, 03:28 UTC

1 66082C 25235AA  26258.14493056 -.00030496  00000+0 -98058-3 0  2588
2 66082  53.1578  83.5758 0001243  88.1410 203.3466 15.31720434    16

Sigue STARLINK-35011 en tiempo real con AllMySat

Download on the App Store